Ostrava, Czech Republic

5:32 AM CEST on March 26, 2017 (GMT +0200)
Mosnov

Weather History for LKMT - February, 2013

Change the Weather History Date:

Saturday, February 2, 2013

  Actual Average Record
Temperature  
Mean Temperature 38 °F -  
Max Temperature 41 °F 38 °F - ()
Min Temperature 35 °F 25 °F - ()
Degree Days  
Heating Degree Days 27    
Moisture  
Dew Point 35 °F    
Average Humidity 84    
Maximum Humidity 100    
Minimum Humidity 68    
Precipitation  
Precipitation 0.02 in 0.04 in - ()
Sea Level Pressure  
Sea Level Pressure 29.33 in    
Wind  
Wind Speed 10 mph ()    
Max Wind Speed 16 mph    
Max Gust Speed -    
Visibility 6.4 miles    
Events Rain    
T = Trace of Precipitation, MM = Missing Value Source: Averaged Metar Reports

Daily Weather History Graph

Daily Weather History Graph

Search for Another Location

Airport or City:

Trip Planner

Search our weather history database for the weather conditions in past years. The results will help you decide how hot, cold, wet, or windy it might be!

Date:

Astronomy

Feb. 02, 2013 Rise Set
Actual Time 7:18 AM CET 4:44 PM CET
Civil Twilight 6:44 AM CET 5:19 PM CET
Nautical Twilight 6:05 AM CET 5:57 PM CET
Astronomical Twilight 5:28 AM CET 6:35 PM CET
Moon No Moon Rise 9:35 AM CET (2/2)
Length of Visible Light 10h 34m
Length of Day
9h 25m
Waning Gibbous, 62% of the Moon is Illuminated
Feb 2
Waning Gibbous
Feb 3
Last Quarter
Feb 10
New
Feb 17
First Quarter
Feb 25
Full

Hourly Weather History & Observations

Time (CET) Temp. Windchill Dew Point Humidity Pressure Visibility Wind Dir Wind Speed Gust Speed Precip Events Conditions
12:00 AM 41.0 °F 35.2 °F 33.8 °F 76% 29.36 in 6.2 mi South 9.2 mph - N/A Rain Light Rain
12:30 AM 41.0 °F 35.2 °F 33.8 °F 76% 29.33 in 6.2 mi South 9.2 mph - N/A   Overcast
1:00 AM 41 °F - 34 °F 68% 29.34 in 16 mi SSW 15.7 mph - - Rain Light Rain
1:00 AM 41.0 °F 32.8 °F 33.8 °F 76% 29.30 in 6.2 mi SSW 16.1 mph - N/A   Overcast
1:30 AM 41.0 °F 34.7 °F 33.8 °F 76% 29.30 in 6.2 mi SSW 10.4 mph - N/A   Overcast
2:00 AM 41.0 °F 33.5 °F 33.8 °F 76% 29.27 in 6.2 mi SSW 13.8 mph - N/A   Overcast
2:30 AM 41.0 °F 34.7 °F 35.6 °F 81% 29.27 in 6.2 mi South 10.4 mph - N/A   Overcast
3:00 AM 42.8 °F 37.5 °F 33.8 °F 70% 29.24 in 6.2 mi South 9.2 mph - N/A   Overcast
3:30 AM 42.8 °F 38.0 °F 35.6 °F 76% 29.24 in 6.2 mi SSW 8.1 mph - N/A   Overcast
4:00 AM 42.8 °F 36.2 °F 35.6 °F 76% 29.21 in 6.2 mi SSW 12.7 mph - N/A Rain Light Rain
4:30 AM 41.0 °F 35.2 °F 35.6 °F 81% 29.21 in 6.2 mi SSW 9.2 mph - N/A   Overcast
5:00 AM 41.0 °F 35.2 °F 35.6 °F 81% 29.21 in 6.2 mi SW 9.2 mph - N/A Rain Light Rain
5:30 AM 39.2 °F 33.0 °F 37.4 °F 93% 29.18 in 6.2 mi SW 9.2 mph - N/A Rain Light Rain
6:00 AM 39.2 °F 32.5 °F 37.4 °F 93% 29.18 in 6.2 mi SW 10.4 mph - N/A Rain Light Rain
6:30 AM 39.2 °F 32.5 °F 35.6 °F 87% 29.18 in 6.2 mi SSW 10.4 mph - N/A   Overcast
7:00 AM 40 °F - 36 °F 82% 29.21 in 9 mi SW 11.2 mph - - Rain Light Rain
7:00 AM 39.2 °F 32.5 °F 35.6 °F 87% 29.18 in 6.2 mi SW 10.4 mph - N/A Rain Light Rain
7:30 AM 41.0 °F 34.3 °F 37.4 °F 87% 29.18 in 6.2 mi SSW 11.5 mph - N/A Rain Light Rain
8:00 AM 41.0 °F 33.9 °F 37.4 °F 87% 29.15 in 6.2 mi SSW 12.7 mph - N/A   Partly Cloudy
8:30 AM 41.0 °F 33.9 °F 37.4 °F 87% 29.18 in 6.2 mi SW 12.7 mph - N/A   Mostly Cloudy
9:00 AM 41.0 °F 35.2 °F 37.4 °F 87% 29.18 in 6.2 mi WSW 9.2 mph - N/A   Scattered Clouds
9:30 AM 39.2 °F 33.0 °F 37.4 °F 93% 29.21 in 5.6 mi WSW 9.2 mph - N/A   Mostly Cloudy
10:00 AM 41.0 °F 33.9 °F 39.2 °F 93% 29.21 in 6.2 mi SW 12.7 mph - N/A   Mostly Cloudy
10:30 AM 41.0 °F 33.9 °F 39.2 °F 93% 29.21 in 6.2 mi WSW 12.7 mph - N/A Rain Light Rain
11:00 AM 39.2 °F 31.6 °F 39.2 °F 100% 29.24 in 3.7 mi SW 12.7 mph - N/A Rain Light Rain
11:30 AM 39.2 °F 30.5 °F 39.2 °F 100% 29.24 in 3.7 mi SW 16.1 mph - N/A Rain Light Rain
12:00 PM 41.0 °F 33.1 °F 39.2 °F 93% 29.24 in 3.7 mi SW 15.0 mph - N/A Rain Light Rain
12:30 PM 41.0 °F 33.5 °F 39.2 °F 93% 29.27 in 4.3 mi SW 13.8 mph - N/A Rain Light Rain
1:00 PM 41 °F - 39 °F 89% 29.31 in 7 mi SW 11.2 mph - - Rain Light Rain
1:00 PM 41.0 °F 34.7 °F 39.2 °F 93% 29.27 in 6.2 mi SW 10.4 mph - N/A   Mostly Cloudy
1:30 PM 41.0 °F 34.3 °F 39.2 °F 93% 29.27 in 6.2 mi SSW 11.5 mph - N/A   Mostly Cloudy
2:00 PM 41.0 °F 34.7 °F 37.4 °F 87% 29.30 in 6.2 mi SW 10.4 mph - N/A   Overcast
2:30 PM 41.0 °F 35.8 °F 35.6 °F 81% 29.30 in 6.2 mi West 8.1 mph - N/A   Mostly Cloudy
3:00 PM 41.0 °F 35.8 °F 35.6 °F 81% 29.30 in 6.2 mi WSW 8.1 mph - N/A   Overcast
3:30 PM 41.0 °F 36.4 °F 35.6 °F 81% 29.33 in 6.2 mi WSW 6.9 mph - N/A Rain Light Rain
4:00 PM 39.2 °F 37.0 °F 35.6 °F 87% 29.36 in 6.2 mi Variable 3.5 mph - N/A Rain Light Rain
4:30 PM 39.2 °F - 35.6 °F 87% 29.36 in 6.2 mi Variable 2.3 mph - N/A   Overcast
5:00 PM 39.2 °F 35.9 °F 33.8 °F 81% 29.39 in 6.2 mi North 4.6 mph - N/A   Mostly Cloudy
5:30 PM 39.2 °F 33.6 °F 32.0 °F 75% 29.42 in 6.2 mi North 8.1 mph - N/A   Overcast
6:00 PM 37.4 °F 31.4 °F 32.0 °F 81% 29.44 in 6.2 mi North 8.1 mph - N/A   Overcast
6:30 PM 37.4 °F 29.3 °F 30.2 °F 75% 29.47 in 6.2 mi NNW 12.7 mph - N/A   Overcast
7:00 PM 36 °F - 31 °F 76% 29.54 in 12 mi NNW 11.2 mph - -   Partly Cloudy
7:00 PM 37.4 °F 29.3 °F 32.0 °F 81% 29.50 in 6.2 mi NNW 12.7 mph - N/A   Overcast
7:30 PM 35.6 °F 29.2 °F 32.0 °F 87% 29.50 in 6.2 mi NNW 8.1 mph - N/A   Overcast
8:00 PM 35.6 °F 29.9 °F 32.0 °F 87% 29.53 in 6.2 mi North 6.9 mph - N/A Rain Light Rain
8:30 PM 37.4 °F 31.4 °F 32.0 °F 81% 29.53 in 6.2 mi NNW 8.1 mph - N/A   Overcast
9:00 PM 37.4 °F 29.3 °F 32.0 °F 81% 29.53 in 6.2 mi NNW 12.7 mph - N/A   Overcast
9:30 PM 37.4 °F 29.8 °F 30.2 °F 75% 29.56 in 6.2 mi NNW 11.5 mph - N/A   Overcast
10:00 PM 37.4 °F 29.8 °F 30.2 °F 75% 29.56 in 6.2 mi NNW 11.5 mph - N/A   Overcast
10:30 PM 35.6 °F 27.1 °F 30.2 °F 81% 29.56 in 6.2 mi NNW 12.7 mph - N/A   Overcast
11:00 PM 35.6 °F 27.5 °F 30.2 °F 81% 29.56 in 6.2 mi NNW 11.5 mph - N/A   Overcast
11:30 PM 35.6 °F 27.1 °F 30.2 °F 81% 29.59 in 6.2 mi NNW 12.7 mph - N/A   Overcast